Location: Chandrammap?lem
(16.9200°N, 81.0051°E)
Time: 04:58:53
(UTC+00:00)

Cosmos 1980 - Pass Details

Date: 29 May 2024
Orbit: 839 x 846 km, 71.0° (Epoch: 19 June)

Event Time Altitude Azimuth Distance (km) Brightness Sun altitude
Rises 23:07:25 0° 333° (NNW) 3,393 6.9 -12.6°
Reaches altitude 10° 23:09:57 10° 327° (NNW) 2,458 6.1 -12.1°
Maximum altitude 23:15:17 44° 256° (WSW) 1,144 4.0 -10.9°
Drops below altitude 10° 23:20:37 10° 185° (S) 2,457 5.8 -9.8°
Sets 23:23:10 0° 178° (S) 3,391 6.6 -9.2°
